Bartow, FL

1:33 AM EST on December 06, 2016 (GMT -0500)
Bartow Municipal

Weather History for KBOW - April, 2013

Change the Weather History Date:

Tuesday, April 30, 2013

  Actual Average Record
Temperature  
Mean Temperature 76 °F -  
Max Temperature 87 °F 86 °F 96 °F (1975)
Min Temperature 64 °F 61 °F 50 °F (2011)
Cooling Degree Days 10    
Growing Degree Days 26 (Base 50)    
Moisture  
Dew Point 66 °F    
Average Humidity 83    
Maximum Humidity 100    
Minimum Humidity 35    
Precipitation  
Precipitation 0.37 in - - ()
Sea Level Pressure  
Sea Level Pressure 29.99 in    
Wind  
Wind Speed 3 mph (ENE)    
Max Wind Speed 17 mph    
Max Gust Speed 29 mph    
Visibility 9 miles    
Events Rain , Thunderstorm    
Averages and records for this station are not official NWS values.
T = Trace of Precipitation, MM = Missing Value Source: NWS Daily Summary

Daily Weather History Graph

Daily Weather History Graph

Search for Another Location

Airport or City:

Trip Planner

Search our weather history database for the weather conditions in past years. The results will help you decide how hot, cold, wet, or windy it might be!

Date:

Astronomy

Apr. 30, 2013 Rise Set
Actual Time 6:47 AM EDT 8:01 PM EDT
Civil Twilight 6:23 AM EDT 8:25 PM EDT
Nautical Twilight 5:53 AM EDT 8:55 PM EDT
Astronomical Twilight 5:23 AM EDT 9:25 PM EDT
Moon 12:17 AM EDT (4/30) 11:20 AM EDT (4/30)
Length of Visible Light 14h 02m
Length of Day
13h 13m
Waning Gibbous, 70% of the Moon is Illuminated
Apr 30
Waning Gibbous
May 2
Last Quarter
May 9
New
May 18
First Quarter
May 25
Full

Hourly Weather History & Observations

Time (EDT) Temp. Heat Index Dew Point Humidity Pressure Visibility Wind Dir Wind Speed Gust Speed Precip Events Conditions
12:15 AM 66.2 °F - 66.2 °F 100% 29.99 in 10.0 mi Calm Calm - N/A   Scattered Clouds
12:35 AM 66.2 °F - 66.2 °F 100% 30.00 in 10.0 mi Calm Calm - N/A   Mostly Cloudy
12:55 AM 66.2 °F - 66.2 °F 100% 29.99 in 10.0 mi Calm Calm - N/A   Mostly Cloudy
1:15 AM 66.2 °F - 66.2 °F 100% 29.99 in 10.0 mi Calm Calm - N/A   Partly Cloudy
1:35 AM 66.2 °F - 66.2 °F 100% 29.98 in 10.0 mi Calm Calm - N/A   Clear
1:55 AM 66.2 °F - 66.2 °F 100% 29.98 in 10.0 mi Calm Calm - N/A   Clear
2:15 AM 66.2 °F - 66.2 °F 100% 29.99 in 9.0 mi Calm Calm - N/A   Clear
2:35 AM 66.2 °F - 66.2 °F 100% 29.98 in 10.0 mi Calm Calm - N/A   Scattered Clouds
2:55 AM 66.2 °F - 66.2 °F 100% 29.98 in 10.0 mi Calm Calm - N/A   Overcast
3:15 AM 64.4 °F - 64.4 °F 100% 29.97 in 10.0 mi Calm Calm - N/A   Scattered Clouds
3:35 AM 66.2 °F - 66.2 °F 100% 29.97 in 10.0 mi Calm Calm - N/A   Mostly Cloudy
3:55 AM 68.0 °F - 68.0 °F 100% 29.97 in 10.0 mi Calm Calm - N/A Thunderstorm Overcast
4:15 AM 66.2 °F - 66.2 °F 100% 29.96 in 10.0 mi Calm Calm - N/A   Scattered Clouds
4:35 AM 66.2 °F - 66.2 °F 100% 29.97 in 10.0 mi Calm Calm - N/A   Scattered Clouds
4:55 AM 66.2 °F - 66.2 °F 100% 29.96 in 10.0 mi Calm Calm - N/A   Partly Cloudy
5:15 AM 66.2 °F - 66.2 °F 100% 29.97 in 10.0 mi Calm Calm - N/A Thunderstorm Partly Cloudy
5:35 AM 66.2 °F - 66.2 °F 100% 29.98 in 10.0 mi Calm Calm - N/A   Clear
5:55 AM 68.0 °F - 68.0 °F 100% 29.98 in 8.0 mi Calm Calm - N/A Rain , Thunderstorm Light Rain
6:15 AM 69.8 °F - 69.8 °F 100% 29.99 in 5.0 mi Calm Calm - N/A Rain , Thunderstorm Light Thunderstorms and Rain
6:35 AM 66.2 °F - 66.2 °F 100% 30.01 in 5.0 mi NW 12.7 mph 24.2 mph N/A Rain , Thunderstorm Light Thunderstorms and Rain
6:55 AM 66.2 °F - 66.2 °F 100% 30.01 in 5.0 mi NNE 11.5 mph - 0.07 in Rain , Thunderstorm Heavy Thunderstorms and Rain
7:15 AM 66.2 °F - 64.4 °F 94% 30.02 in 5.0 mi NE 6.9 mph - 0.02 in Rain , Thunderstorm Light Rain
7:35 AM 66.2 °F - 66.2 °F 100% 30.03 in 1.5 mi North 8.1 mph - 0.10 in Rain Rain
7:55 AM 66.2 °F - 66.2 °F 100% 30.02 in 2.0 mi North 8.1 mph - 0.16 in Rain Light Rain
8:15 AM 66.2 °F - 64.4 °F 94% 30.04 in 2.5 mi North 6.9 mph - 0.07 in Rain Light Rain
8:35 AM 66.2 °F - 66.2 °F 100% 30.03 in 4.0 mi North 4.6 mph - 0.09 in Rain Light Rain
8:55 AM 66.2 °F - 66.2 °F 100% 30.03 in 3.0 mi North 3.5 mph - 0.11 in Rain Light Rain
9:15 AM 66.2 °F - 66.2 °F 100% 30.03 in 3.0 mi NNE 5.8 mph - 0.02 in Rain Light Rain
9:35 AM 66.2 °F - 66.2 °F 100% 30.03 in 4.0 mi ENE 3.5 mph - 0.03 in Rain Light Rain
9:55 AM 68.0 °F - 68.0 °F 100% 30.02 in 8.0 mi NE 4.6 mph - 0.03 in   Partly Cloudy
10:15 AM 69.8 °F - 66.2 °F 88% 30.02 in 10.0 mi NNE 3.5 mph - N/A   Partly Cloudy
10:35 AM 73.4 °F - 66.2 °F 78% 30.02 in 10.0 mi Calm Calm - N/A   Partly Cloudy
10:55 AM 73.4 °F - 66.2 °F 78% 30.02 in 7.0 mi East 3.5 mph - N/A   Clear
11:15 AM 77.0 °F - 64.4 °F 65% 30.02 in 9.0 mi NNE 3.5 mph - N/A   Clear
11:35 AM 77.0 °F - 66.2 °F 69% 30.02 in 10.0 mi SE 4.6 mph - N/A   Partly Cloudy
11:55 AM 78.8 °F - 66.2 °F 65% 30.01 in 9.0 mi ESE 6.9 mph - N/A   Clear
12:15 PM 80.6 °F 82.3 °F 64.4 °F 58% 30.00 in 9.0 mi SE 6.9 mph - N/A   Clear
12:35 PM 80.6 °F 82.3 °F 64.4 °F 58% 30.00 in 9.0 mi SE 5.8 mph - N/A   Clear
12:55 PM 82.4 °F 83.9 °F 64.4 °F 54% 29.99 in 9.0 mi East 4.6 mph - N/A   Clear
1:15 PM 82.4 °F 83.4 °F 62.6 °F 51% 29.98 in 9.0 mi Calm Calm - N/A   Scattered Clouds
1:35 PM 84.2 °F 85.0 °F 62.6 °F 48% 29.97 in 9.0 mi SSE 5.8 mph - N/A   Partly Cloudy
1:55 PM 84.2 °F 84.4 °F 60.8 °F 45% 29.96 in 9.0 mi SE 3.5 mph - N/A   Partly Cloudy
2:15 PM 84.2 °F 84.4 °F 60.8 °F 45% 29.96 in 9.0 mi Calm Calm - N/A   Clear
2:35 PM 84.2 °F 84.4 °F 60.8 °F 45% 29.96 in 9.0 mi Calm Calm - N/A   Clear
2:55 PM 84.2 °F 84.4 °F 60.8 °F 45% 29.95 in 10.0 mi WNW 4.6 mph - N/A   Clear
3:15 PM 86.0 °F 86.1 °F 60.8 °F 43% 29.94 in 10.0 mi Calm Calm - N/A   Clear
3:35 PM 87.8 °F 87.6 °F 60.8 °F 40% 29.94 in 9.0 mi NNE 8.1 mph - N/A   Clear
3:55 PM 87.8 °F 86.5 °F 57.2 °F 35% 29.93 in 10.0 mi East 6.9 mph - N/A   Clear
4:15 PM 87.8 °F 86.5 °F 57.2 °F 35% 29.93 in 9.0 mi ENE 6.9 mph - N/A   Clear
4:35 PM 87.8 °F 87.1 °F 59.0 °F 38% 29.92 in 10.0 mi North 8.1 mph - N/A   Clear
4:55 PM 87.8 °F 86.5 °F 57.2 °F 35% 29.92 in 10.0 mi NNE 4.6 mph - N/A   Clear
5:15 PM 87.8 °F 87.1 °F 59.0 °F 38% 29.93 in 9.0 mi ENE 6.9 mph - N/A   Clear
5:35 PM 78.8 °F - 64.4 °F 61% 29.95 in 9.0 mi SE 17.3 mph 28.8 mph N/A Thunderstorm Clear
5:55 PM 75.2 °F - 62.6 °F 65% 29.96 in 10.0 mi SSE 13.8 mph - N/A   Clear
6:15 PM 73.4 °F - 64.4 °F 73% 29.95 in 10.0 mi SE 17.3 mph - N/A Thunderstorm Partly Cloudy
6:35 PM 73.4 °F - 64.4 °F 73% 29.97 in 10.0 mi SE 11.5 mph - N/A   Partly Cloudy
6:55 PM 73.4 °F - 66.2 °F 78% 29.96 in 10.0 mi SSE 13.8 mph 21.9 mph N/A   Clear
7:15 PM 71.6 °F - 71.6 °F 100% 29.98 in 5.0 mi SE 10.4 mph - N/A Thunderstorm Mostly Cloudy
7:35 PM 71.6 °F - 71.6 °F 100% 29.98 in 9.0 mi SSE 11.5 mph - N/A   Mostly Cloudy
7:55 PM 71.6 °F - 69.8 °F 94% 29.99 in 8.0 mi ESE 6.9 mph - N/A   Mostly Cloudy
8:15 PM 71.6 °F - 69.8 °F 94% 30.00 in 10.0 mi East 4.6 mph - N/A   Mostly Cloudy
8:35 PM 71.6 °F - 71.6 °F 100% 30.00 in 10.0 mi East 3.5 mph - N/A Rain Light Rain
8:55 PM 71.6 °F - 71.6 °F 100% 30.01 in 10.0 mi Calm Calm - N/A   Mostly Cloudy
9:15 PM 71.6 °F - 71.6 °F 100% 30.02 in 10.0 mi Calm Calm - N/A   Scattered Clouds
9:35 PM 71.6 °F - 71.6 °F 100% 30.02 in 10.0 mi ENE 4.6 mph - N/A   Mostly Cloudy
9:55 PM 71.6 °F - 71.6 °F 100% 30.03 in 10.0 mi NNE 5.8 mph - N/A   Scattered Clouds
10:15 PM 71.6 °F - 71.6 °F 100% 30.04 in 10.0 mi East 3.5 mph - N/A   Mostly Cloudy
10:35 PM 71.6 °F - 69.8 °F 94% 30.04 in 10.0 mi NNE 4.6 mph - N/A   Mostly Cloudy
10:55 PM 71.6 °F - 69.8 °F 94% 30.04 in 10.0 mi North 5.8 mph - N/A   Overcast
11:35 PM 69.8 °F - 69.8 °F 100% 30.02 in 10.0 mi NE 3.5 mph - N/A   Clear
11:55 PM 69.8 °F - 69.8 °F 100% 30.02 in 10.0 mi Calm Calm - N/A   Clear